Probability
0 0 0 1 2 2 1 1 2 1 0 0 0 0 0 0 0 0 0 0 0 0 0 0 0 0 0 0 0 0 0 0 0 0 0 0 0 0 0 0 0 0 0
0 0 0 1 2 3 2 2 3 2 1 0 0 0 0 0 0 0 0 0 0 0 0 0 0 0 0 0 0 0 0 0 0 0 0 0 0 0 0 0 0 0 0
0 0 0 1 2 3 3 3 3 2 1 0 0 0 0 0 0 0 0 0 0 0 0 0 0 0 0 0 0 0 0 0 0 0 0 0 0 0 0 0 0 0 0
0 0 0 0 1 3 3 3 3 2 1 0 0 0 0 0 0 0 0 0 0 0 0 0 0 0 0 0 0 0 0 0 0 0 0 0 0 0 0 0 0 0 0
0 0 0 0 1 2 3 3 3 2 1 0 0 0 0 0 0 0 0 0 0 0 0 0 0 0 0 0 0 0 0 0 0 0 0 0 0 0 0 0 0 0 0
0 0 0 0 1 2 3 3 3 2 1 0 0 0 0 0 0 0 0 0 0 0 0 0 0 0 0 0 0 0 0 0 0 0 0 0 0 0 0 0 0 0 0
0 0 0 0 1 2 3 3 2 1 0 0 0 0 0 0 0 0 0 0 0 0 0 0 0 0 0 0 0 0 0 0 0 0 0 0 0 0 0 0 0 0 0
0 0 0 0 0 1 3 3 1 0 0 0 0 0 0 0 0 0 0 0 0 0 0 0 0 0 0 0 0 0 0 0 0 0 0 0 0 0 0 0 0 0 0
0 0 0 0 0 1 2 2 1 0 0 0 0 0 0 0 0 0 0 0 0 0 0 0 0 0 0 0 0 0 0 0 0 0 0 0 0 0 0 0 0 0 0
0 0 0 0 0 1 2 2 1 0 0 0 0 0 0 0 0 0 0 0 0 0 0 0 0 0 0 0 0 0 0 0 0 0 0 0 0 0 0 0 0 0 0
0 0 0 0 0 0 1 2 1 0 0 0 0 0 0 0 0 0 0 0 0 0 0 0 0 0 0 0 0 0 0 0 0 0 0 0 0 0 0 0 0 0 0
0 0 0 0 0 0 1 2 1 0 0 0 0 0 0 0 0 0 0 0 0 0 0 0 0 0 0 0 0 0 0 0 0 0 0 0 0 0 0 0 0 0 0
0 0 0 0 0 0 1 1 1 0 0 0 0 0 0 0 0 0 0 0 0 0 0 0 0 0 0 0 0 0 0 0 0 0 0 0 0 0 0 0 0 0 0
0 0 0 0 0 0 0 1 1 1 0 0 0 0 0 0 0 0 0 0 0 0 0 0 0 0 0 0 0 0 0 0 0 0 0 0 0 0 0 0 0 0 0
0 0 0 0 0 0 0 1 1 1 0 0 0 0 0 0 0 0 0 0 0 0 0 0 0 0 0 0 0 0 0 0 0 0 0 0 0 0 0 0 0 0 0
0 0 0 0 0 0 0 0 1 1 0 0 0 0 0 0 0 0 0 0 0 0 0 0 0 0 0 0 0 0 0 0 0 0 0 0 0 0 0 0 0 0 0
0 0 0 0 0 0 0 0 0 0 0 0 0 0 0 0 0 0 0 0 0 0 0 0 0 0 0 0 0 0 0 0 0 0 0 0 0 0 0 0 0 0 0
0 0 0 0 0 0 0 0 0 0 0 0 0 0 0 0 0 0 0 0 0 0 0 0 0 0 0 0 0 0 0 0 0 0 0 0 0 0 0 0 0 0 0
0 0 0 0 0 0 0 0 0 0 0 0 0 0 0 0 0 0 0 0 0 0 0 0 0 0 0 0 0 0 0 0 0 0 0 0 0 0 0 0 0 0 0
0 0 0 0 0 0 0 0 0 0 0 0 0 0 0 0 0 0 0 0 0 0 0 0 0 0 0 0 0 0 0 0 0 0 0 0 0 0 0 0 0 0 0
0 0 0 0 0 0 0 0 0 0 0 0 0 0 0 0 0 0 0 0 0 0 0 0 0 0 0 0 0 0 0 0 0 0 0 0 0 0 0 0 0 0 0
0 0 0 0 0 0 0 0 0 0 0 0 0 0 0 0 0 0 0 0 0 0 0 0 0 0 0 0 0 0 0 0 0 0 0 0 0 0 0 0 0 0 0
0 0 0 0 0 0 0 0 0 0 0 0 0 0 0 0 0 0 0 0 0 0 0 0 0 0 0 0 0 0 0 0 0 0 0 0 0 0 0 0 0 0 0
0 0 0 0 0 0 0 0 0 0 0 0 0 0 0 0 0 0 0 0 0 0 0 0 0 0 0 0 0 0 0 0 0 0 0 0 0 0 0 0 0 0 0
0 0 0 0 0 0 0 0 0 0 0 0 0 0 0 0 0 0 0 0 0 0 0 0 0 0 0 0 0 0 0 0 0 0 0 0 0 0 0 0 0 0 0
0 0 0 0 0 0 0 0 0 0 0 0 0 0 0 0 0 0 0 0 0 0 0 0 0 0 0 0 0 0 0 0 0 0 0 0 0 0 0 0 0 0 0
Wind_Speed
2 3 4 4 4 5 5 5 5 6 5 4 4 4 4 4 3 3 4 4 4 4 3 3 3 2 1 1 1 1 1 1 1 1 2 2 2 1 1 1 0 0 0
2 3 4 4 4 4 5 5 5 5 4 4 3 2 3 3 3 3 4 4 4 4 4 3 2 2 2 2 2 1 1 1 1 0 0 1 2 2 2 1 1 1 1
1 2 3 4 4 4 4 5 5 5 5 5 3 4 3 3 3 4 4 4 4 4 4 4 3 2 2 1 2 1 0 1 2 1 1 1 2 2 2 2 1 1 1
1 0 2 3 3 3 3 4 4 4 4 4 3 4 4 4 4 4 4 5 4 4 4 4 3 2 2 2 2 2 1 1 2 2 2 2 1 1 2 2 2 2 2
1 1 1 2 2 2 2 3 4 4 4 4 4 3 3 3 4 4 5 5 4 4 4 4 4 3 2 3 3 2 2 2 2 2 2 2 2 1 2 3 3 3 2
1 1 1 1 2 2 2 3 4 5 5 5 4 4 4 5 6 6 5 5 4 4 5 5 4 4 3 3 3 3 3 3 3 2 2 2 2 2 2 3 3 3 3
1 1 1 2 2 3 3 3 3 4 5 5 4 4 4 4 4 5 5 5 4 4 5 5 5 4 4 4 4 3 4 4 4 3 3 3 3 2 2 3 3 3 3
1 1 1 1 2 2 3 3 3 4 5 5 5 4 4 3 3 5 5 5 4 5 6 6 5 6 5 5 4 4 4 4 4 5 4 3 3 3 3 3 2 3 3
2 2 1 1 2 2 2 3 3 4 5 5 5 5 4 4 5 5 5 4 5 5 6 6 6 6 6 5 5 4 5 4 4 5 5 4 4 3 3 3 3 4 4
2 2 1 1 2 2 3 3 3 4 4 5 5 5 5 5 5 5 6 5 6 6 6 6 6 6 6 5 5 5 5 5 5 4 5 5 4 4 3 3 4 4 4
3 2 2 2 2 3 3 3 3 4 4 5 5 6 6 6 5 5 6 6 6 6 6 6 6 7 6 6 5 6 6 6 6 5 6 6 5 4 4 4 4 4 4
2 2 2 2 3 3 3 3 4 4 5 5 5 6 6 6 6 6 7 6 6 7 7 7 7 7 7 6 6 7 7 7 7 7 7 7 5 6 5 4 5 5 4
3 2 2 3 3 3 4 4 4 4 5 5 5 6 6 6 7 7 7 7 7 7 7 7 7 7 7 7 7 7 7 7 8 8 8 7 7 7 5 6 6 5 5
3 3 3 3 4 4 4 4 4 4 5 5 5 6 6 6 7 7 7 7 7 7 7 8 8 8 8 8 8 8 8 7 7 8 8 8 8 9 8 7 7 6 5
4 4 4 4 4 4 5 5 5 5 5 5 6 6 7 6 7 7 7 7 7 8 8 8 8 8 7 7 8 8 8 8 7 8 8 8 10 11 9 8 7 6 6
5 4 4 5 5 5 6 6 6 5 5 5 6 6 7 7 7 7 7 7 7 7 8 8 8 9 8 12 14 10 7 7 8 8 7 7 9 10 13 13 11 10 8
5 5 5 5 5 5 6 6 6 6 5 5 6 6 6 7 7 8 8 7 7 7 8 8 8 9 10 14 14 13 8 7 7 7 7 7 7 9 7 9 11 11 12
4 4 4 5 5 5 5 5 6 6 6 6 6 6 6 7 7 7 8 7 7 7 7 8 8 9 11 15 14 13 8 6 7 8 7 7 7 7 7 7 7 7 7
4 4 4 5 5 6 6 6 5 5 6 6 6 6 7 7 7 8 8 7 7 7 7 8 8 8 10 14 13 12 6 5 6 7 7 7 7 9 10 8 7 7 6
3 4 4 4 5 6 6 5 5 5 6 7 7 7 7 7 7 8 8 7 7 7 8 8 7 8 9 13 13 11 4 5 5 5 6 9 9 10 11 8 7 7 6
4 4 4 5 5 6 5 5 5 6 7 7 7 7 7 6 6 6 6 6 7 7 7 8 8 7 8 11 12 11 5 4 5 5 5 5 9 10 11 9 7 8 7
5 5 4 5 5 5 5 6 6 6 6 6 7 7 7 6 6 6 6 6 6 6 6 6 7 6 7 9 11 12 10 8 5 5 4 5 8 9 9 7 7 8 6
4 4 4 5 5 5 5 6 7 6 6 7 7 7 7 6 6 5 6 6 5 5 5 5 6 6 6 7 12 13 12 11 6 5 7 7 7 7 5 5 6 4 3
4 4 5 5 6 6 6 5 7 6 6 6 7 7 6 6 5 5 5 5 5 5 5 6 6 6 6 6 6 6 6 8 6 5 5 6 6 5 3 2 2 2 2
4 4 4 5 6 6 6 7 6 5 5 6 6 6 6 6 5 5 5 6 5 6 7 5 5 6 6 8 12 9 6 4 4 4 3 2 2 2 2 1 1 1 1
4 5 5 6 6 6 7 6 6 5 5 6 6 5 5 5 5 5 6 9 9 12 12 12 10 8 10 13 13 12 12 10 8 4 2 2 2 2 2 2 1 1 1
Wind_Direction
32 34 27 23 32 25 24 24 20 12 13 9 2 354 350 342 348 352 356 356 355 352 349 342 342 348 351 335 349 5 355 347 358 27 347 333 322 304 298 275 253 266 279
29 22 20 18 26 22 15 15 14 10 11 4 349 325 320 320 332 337 342 350 350 346 347 342 332 327 331 342 347 5 349 313 332 39 4 327 327 331 304 273 232 248 270
109 14 12 9 15 16 5 6 1 4 2 -0 358 351 352 341 353 348 342 343 336 335 332 329 324 323 318 298 294 296 307 283 288 265 192 188 237 312 313 310 296 287 281
170 14 2 2 359 355 355 359 358 360 358 1 9 9 0 340 327 326 326 328 330 326 324 324 320 312 308 300 283 297 292 258 276 290 278 252 201 206 282 309 318 315 287
195 243 323 334 339 346 354 352 357 359 358 360 3 2 349 329 320 328 331 328 327 325 320 316 315 307 300 295 291 284 280 265 258 265 281 286 279 239 227 266 296 315 304
232 287 320 349 350 353 359 0 2 358 357 358 356 354 340 334 334 334 329 326 326 324 325 317 309 302 294 288 282 275 268 263 260 260 261 254 245 234 229 248 271 282 289
236 274 312 341 342 345 348 354 357 350 348 350 345 337 328 325 323 322 319 318 319 319 317 316 307 298 290 281 277 271 262 252 245 244 250 252 252 247 238 240 258 270 281
249 264 278 299 316 326 339 342 343 339 339 340 333 325 323 319 312 313 310 307 302 300 300 303 305 302 292 286 276 270 263 258 249 253 248 253 251 246 235 229 233 262 270
281 284 286 301 314 318 321 320 324 329 330 331 328 322 322 318 311 310 307 304 304 303 303 301 301 300 297 287 274 266 263 258 249 248 247 251 252 242 238 229 218 224 247
287 296 305 304 310 305 312 321 321 318 319 323 321 326 316 307 307 310 307 303 302 304 301 301 297 295 294 293 281 268 262 257 255 250 247 248 251 242 235 231 231 229 232
278 286 294 295 302 318 323 323 323 326 324 322 317 317 313 309 311 308 305 304 303 304 301 296 295 293 292 290 288 278 268 258 259 257 251 249 247 242 239 236 234 234 225
277 281 290 307 316 325 319 316 318 321 317 316 315 312 311 312 311 309 307 306 304 302 299 296 292 289 288 285 279 278 275 261 256 255 252 253 251 243 240 235 234 234 227
303 307 312 315 309 312 311 309 311 311 311 313 310 309 310 312 308 306 307 307 305 303 300 298 290 286 283 280 275 273 270 266 258 251 247 247 243 245 243 239 234 233 236
296 299 303 307 308 309 306 303 306 306 310 311 306 305 304 303 302 304 306 305 304 302 300 297 293 287 283 278 274 272 268 264 264 257 247 244 239 238 236 237 233 227 228
309 299 301 302 307 311 311 307 301 305 307 305 304 301 301 301 303 306 304 304 305 304 301 299 297 292 284 274 272 269 268 264 264 262 256 249 247 244 240 238 230 222 223
307 306 309 310 309 310 309 312 304 300 302 299 298 302 306 306 305 305 305 307 305 304 304 301 298 294 289 288 287 282 270 264 262 262 259 257 254 251 249 246 244 234 226
304 307 306 302 302 301 302 301 300 299 299 298 300 303 305 306 306 307 307 304 303 304 303 301 299 295 293 294 292 288 282 265 259 259 256 258 256 256 251 250 249 247 241
303 301 300 303 301 299 301 300 300 304 299 298 300 304 307 305 305 305 304 302 302 301 300 301 300 298 296 299 296 293 286 268 259 256 251 250 250 246 249 243 242 244 244
288 288 291 295 301 304 306 307 305 309 307 303 302 303 303 303 304 304 303 303 302 302 301 300 300 300 300 303 300 296 285 273 267 264 257 251 247 250 251 244 241 246 249
310 308 308 310 310 309 312 310 308 310 308 308 304 299 298 298 298 298 299 301 300 300 303 304 303 300 299 306 306 303 286 282 276 269 261 259 256 253 254 241 233 238 240
318 321 321 319 313 314 320 314 310 305 303 309 309 304 299 295 293 295 299 300 302 303 303 303 305 303 306 312 313 310 299 284 281 272 266 261 263 263 262 256 241 238 241
324 326 325 321 320 323 326 320 314 309 311 312 311 308 304 302 307 301 302 303 304 303 304 306 309 309 310 316 316 314 310 306 289 281 278 267 265 269 268 259 250 249 246
317 320 319 319 323 326 325 315 311 312 315 314 312 312 313 308 306 302 304 306 307 307 309 311 312 313 314 315 319 318 316 312 304 289 289 290 284 283 273 262 257 252 232
318 320 323 322 322 324 320 308 309 313 313 312 312 316 317 315 312 311 310 308 309 308 308 309 310 313 315 315 315 313 312 315 315 309 302 304 312 312 300 289 280 261 237
318 318 317 314 313 317 317 318 318 314 312 311 313 317 318 314 315 315 313 312 303 306 310 306 305 308 311 317 323 323 319 315 313 317 325 332 331 335 327 315 301 284 255
311 316 315 314 313 317 317 320 321 319 315 316 318 317 317 317 319 320 321 325 325 324 324 322 319 313 316 322 327 330 332 334 335 340 345 335 325 316 310 313 321 308 289